Weather History for Duluth Sky Harbor, MN

Change the Weather History Date:

Saturday, February 23, 2013

  Actual Average Record
Temperature  
Mean Temperature 27 °F -  
Max Temperature 33 °F 29 °F 54 °F (1958)
Min Temperature 21 °F 12 °F -20 °F (1962)
Degree Days  
Heating Degree Days 38    
Moisture  
Dew Point 23 °F    
Average Humidity 78    
Maximum Humidity 93    
Minimum Humidity 60    
Precipitation  
Precipitation 0.00 in - - ()
Sea Level Pressure  
Sea Level Pressure 29.83 in    
Wind  
Wind Speed 6 mph (NW)    
Max Wind Speed 14 mph    
Max Gust Speed -    
Visibility 10 miles    
Events Snow    
Averages and records for this station are not official NWS values.
T = Trace of Precipitation, MM = Missing Value Source: NWS Daily Summary

Daily Weather History Graph

Daily Weather History Graph

Search for Another Location

Airport:

Trip Planner

Search our weather history database for the weather conditions in past years. The results will help you decide how hot, cold, wet, or windy it might be!

Date:

Astronomy

Feb. 23, 2013 Rise Set
Actual Time 6:58 AM CST 5:45 PM CST
Civil Twilight 6:27 AM CST 6:16 PM CST
Nautical Twilight 5:52 AM CST 6:51 PM CST
Astronomical Twilight 5:17 AM CST 7:26 PM CST
Moon 3:52 PM CST (2/23) 5:25 AM CST (2/23)
Length of Visible Light 11h 48m
Length of Day
10h 47m
Waxing Gibbous, 95% of the Moon is Illuminated
Feb 23
Waxing Gibbous
Feb 25
Full
Mar 4
Last Quarter
Mar 11
New
Mar 19
First Quarter

Hourly Weather History & Observations

Time (CST) Temp. Windchill Dew Point Humidity Pressure Visibility Wind Dir Wind Speed Gust Speed Precip Events Conditions
12:14 AM 28.4 °F 19.7 °F 24.8 °F 86% 29.83 in 10.0 mi North 9.2 mph - N/A Snow Light Snow
12:33 AM 28.4 °F 19.7 °F 24.8 °F 86% 29.83 in 7.0 mi North 9.2 mph - N/A Snow Light Snow
12:54 AM 26.6 °F 17.5 °F 23.0 °F 86% 29.83 in 10.0 mi NNW 9.2 mph - N/A Snow Light Snow
1:13 AM 26.6 °F 17.5 °F 23.0 °F 86% 29.83 in 10.0 mi North 9.2 mph - N/A Snow Light Snow
1:33 AM 26.6 °F 16.8 °F 23.0 °F 86% 29.83 in 10.0 mi NNW 10.4 mph - N/A Snow Light Snow
1:54 AM 26.6 °F 16.8 °F 23.0 °F 86% 29.82 in 10.0 mi North 10.4 mph - N/A Snow Light Snow
2:13 AM 26.6 °F 17.5 °F 23.0 °F 86% 29.82 in 10.0 mi North 9.2 mph - N/A   Overcast
2:33 AM 26.6 °F 16.8 °F 23.0 °F 86% 29.82 in 10.0 mi North 10.4 mph - N/A   Overcast
3:13 AM 26.6 °F 16.2 °F 23.0 °F 86% 29.80 in 10.0 mi NNE 11.5 mph - N/A Snow Light Snow
3:33 AM 26.6 °F 16.2 °F 23.0 °F 86% 29.80 in 10.0 mi NNE 11.5 mph - N/A   Overcast
3:54 AM 26.6 °F 20.0 °F 21.2 °F 80% 29.80 in 10.0 mi North 5.8 mph - N/A   Overcast
4:13 AM 24.8 °F 19.1 °F 21.2 °F 86% 29.80 in 10.0 mi North 4.6 mph - N/A   Overcast
4:33 AM 24.8 °F 17.9 °F 21.2 °F 86% 29.80 in 10.0 mi North 5.8 mph - N/A   Overcast
4:54 AM 24.8 °F 17.9 °F 21.2 °F 86% 29.81 in 10.0 mi North 5.8 mph - N/A   Overcast
5:13 AM 21.2 °F 16.4 °F 19.4 °F 93% 29.81 in 10.0 mi WNW 3.5 mph - N/A   Overcast
5:34 AM 24.8 °F 19.1 °F 21.2 °F 86% 29.81 in 10.0 mi NW 4.6 mph - N/A   Overcast
5:54 AM 26.6 °F 20.0 °F 21.2 °F 80% 29.81 in 10.0 mi NW 5.8 mph - N/A   Overcast
6:13 AM 26.6 °F 20.0 °F 23.0 °F 86% 29.81 in 10.0 mi NNW 5.8 mph - N/A   Overcast
6:33 AM 26.6 °F 20.0 °F 21.2 °F 80% 29.81 in 10.0 mi NNW 5.8 mph - N/A   Overcast
6:54 AM 24.8 °F 19.1 °F 21.2 °F 86% 29.82 in 10.0 mi NNW 4.6 mph - N/A   Overcast
7:13 AM 23.0 °F - 19.4 °F 86% 29.82 in 10.0 mi Calm Calm - N/A   Overcast
7:33 AM 24.8 °F - 19.4 °F 80% 29.82 in 10.0 mi Calm Calm - N/A   Overcast
7:54 AM 24.8 °F - 19.4 °F 80% 29.82 in 10.0 mi Calm Calm - N/A   Overcast
8:13 AM 24.8 °F - 19.4 °F 80% 29.82 in 10.0 mi Calm Calm - N/A   Overcast
8:33 AM 24.8 °F - 21.2 °F 86% 29.82 in 10.0 mi Calm Calm - N/A   Overcast
8:54 AM 24.8 °F - 21.2 °F 86% 29.82 in 10.0 mi Calm Calm - N/A   Overcast
9:13 AM 26.6 °F - 21.2 °F 80% 29.83 in 10.0 mi Calm Calm - N/A   Overcast
9:34 AM 26.6 °F - 21.2 °F 80% 29.83 in 10.0 mi Calm Calm - N/A   Overcast
9:53 AM 26.6 °F - 21.2 °F 80% 29.83 in 10.0 mi Calm Calm - N/A   Overcast
10:13 AM 28.4 °F - 21.2 °F 74% 29.83 in 10.0 mi Calm Calm - N/A   Overcast
10:34 AM 28.4 °F - 23.0 °F 80% 29.83 in 10.0 mi Calm Calm - N/A   Overcast
10:53 AM 30.2 °F - 21.2 °F 69% 29.83 in 10.0 mi Calm Calm - N/A   Overcast
11:13 AM 30.2 °F - 23.0 °F 75% 29.83 in 10.0 mi Calm Calm - N/A   Overcast
11:34 AM 30.2 °F - 23.0 °F 75% 29.83 in 10.0 mi Calm Calm - N/A   Overcast
11:53 AM 30.2 °F - 23.0 °F 75% 29.82 in 10.0 mi Calm Calm - N/A   Overcast
12:14 PM 32.0 °F - 24.8 °F 75% 29.82 in 10.0 mi Calm Calm - N/A   Mostly Cloudy
12:33 PM 33.8 °F - 23.0 °F 65% 29.82 in 10.0 mi Calm Calm - N/A   Mostly Cloudy
12:53 PM 33.8 °F - 24.8 °F 70% 29.82 in 10.0 mi Calm Calm - N/A   Mostly Cloudy
1:14 PM 33.8 °F - 23.0 °F 65% 29.81 in 10.0 mi Calm Calm - N/A   Overcast
1:33 PM 33.8 °F - 24.8 °F 70% 29.82 in 10.0 mi Calm Calm - N/A   Overcast
1:53 PM 33.8 °F - 21.2 °F 60% 29.81 in 10.0 mi Calm Calm - N/A   Overcast
2:14 PM 33.8 °F - 21.2 °F 60% 29.81 in 10.0 mi Calm Calm - N/A   Overcast
2:33 PM 33.8 °F - 23.0 °F 65% 29.81 in 10.0 mi Calm Calm - N/A   Overcast
2:53 PM 33.8 °F 25.8 °F 24.8 °F 70% 29.81 in 10.0 mi West 10.4 mph - N/A   Overcast
3:14 PM 33.8 °F 25.8 °F 24.8 °F 70% 29.81 in 10.0 mi West 10.4 mph - N/A   Overcast
3:33 PM 33.8 °F 24.3 °F 24.8 °F 70% 29.81 in 10.0 mi West 13.8 mph - N/A   Overcast
3:53 PM 33.8 °F 25.3 °F 24.8 °F 70% 29.81 in 10.0 mi West 11.5 mph - N/A   Overcast
4:14 PM 33.8 °F 25.3 °F 24.8 °F 70% 29.82 in 10.0 mi West 11.5 mph - N/A   Overcast
4:33 PM 33.8 °F 25.3 °F 24.8 °F 70% 29.82 in 10.0 mi West 11.5 mph - N/A   Overcast
4:54 PM 33.8 °F 25.8 °F 24.8 °F 70% 29.83 in 10.0 mi West 10.4 mph - N/A   Overcast
5:13 PM 33.8 °F 25.8 °F 24.8 °F 70% 29.83 in 10.0 mi West 10.4 mph - N/A   Overcast
5:33 PM 33.8 °F 25.8 °F 24.8 °F 70% 29.83 in 10.0 mi West 10.4 mph - N/A   Overcast
5:54 PM 33.8 °F 25.8 °F 24.8 °F 70% 29.83 in 10.0 mi West 10.4 mph - N/A   Overcast
6:13 PM 33.8 °F 25.8 °F 24.8 °F 70% 29.84 in 10.0 mi West 10.4 mph - N/A   Overcast
6:54 PM 33.8 °F 27.0 °F 24.8 °F 70% 29.85 in 10.0 mi West 8.1 mph - N/A   Overcast
7:13 PM 33.8 °F 28.6 °F 24.8 °F 70% 29.85 in 10.0 mi West 5.8 mph - N/A   Overcast
7:33 PM 33.8 °F 29.6 °F 24.8 °F 70% 29.86 in 10.0 mi West 4.6 mph - N/A   Overcast
7:53 PM 33.8 °F 30.8 °F 24.8 °F 70% 29.86 in 10.0 mi West 3.5 mph - N/A   Overcast
8:13 PM 32.0 °F 26.4 °F 24.8 °F 75% 29.87 in 10.0 mi West 5.8 mph - N/A   Overcast
8:34 PM 32.0 °F 27.5 °F 24.8 °F 75% 29.87 in 10.0 mi WNW 4.6 mph - N/A   Overcast
8:53 PM 32.0 °F 28.7 °F 24.8 °F 75% 29.87 in 10.0 mi WNW 3.5 mph - N/A   Overcast
9:13 PM 32.0 °F - 26.6 °F 80% 29.88 in 10.0 mi Calm Calm - N/A   Overcast
9:34 PM 32.0 °F 27.5 °F 26.6 °F 80% 29.88 in 10.0 mi ENE 4.6 mph - N/A   Overcast
9:53 PM 30.2 °F 24.3 °F 28.4 °F 93% 29.89 in 10.0 mi ENE 5.8 mph - N/A   Overcast
10:34 PM 30.2 °F 24.3 °F 28.4 °F 93% 29.90 in 10.0 mi North 5.8 mph - N/A   Overcast
10:53 PM 30.2 °F 26.7 °F 28.4 °F 93% 29.91 in 10.0 mi NNW 3.5 mph - N/A   Overcast
11:13 PM 32.0 °F - 28.4 °F 87% 29.91 in 10.0 mi Calm Calm - N/A   Overcast
11:34 PM 30.2 °F 22.6 °F 24.8 °F 80% 29.91 in 10.0 mi WNW 8.1 mph - N/A   Overcast
11:53 PM 30.2 °F 22.6 °F 24.8 °F 80% 29.92 in 10.0 mi West 8.1 mph - N/A   Overcast